Regional Weather Roundup
Issued by NWS

Home | Current Version | Previous Version | Graphics & Text | Print | Product List | Glossary On
Versions: 1 2 3 4 5 6 7 8 9 10 11 12 13 14 15 16 17 18 19 20 21 22 23 24 25 26 27 28 29 30 31 32 33 34 35 36 37 38 39 40 41 42 43 44 45 46 47 48 49 50
000
ASUS43 KDMX 200301
RWRIA

WEATHER ROUNDUP FOR IOWA
NATIONAL WEATHER SERVICE DES MOINES IA
1000 PM CDT WED JUL 19 2017

NOTE: "FAIR" INDICATES FEW OR NO CLOUDS BELOW 12,000 FEET WITH NO
SIGNIFICANT WEATHER AND/OR OBSTRUCTIONS TO VISIBILITY.

* - THESE STATIONS ARE NOT NWS STATIONS...THUS NOT UNDER NWS
QUALITY CONTROL.  THEY ALSO DO NOT REPORT WEATHER SUCH
AS PRECIPITATION OR FOG.

IAZ001>003-012>014-020>022-031>034-043>046-200400-
   NORTHWEST IOWA

CITY           SKY/WX    TMP DP  RH WIND       PRES   REMARKS
CARROLL *      CLOUDY    82  79  89 S10       29.95F HX  93
CHEROKEE *     CLOUDY    86  75  70 SW25G35   29.82F HX  94
DENISON *      CLOUDY    82  79  89 S7        29.99F HX  93
ORANGE CITY *  CLOUDY    84  75  74 W8        29.87R HX  92
SHELDON *      CLOUDY    79  75  89 CALM      29.86S HX  82
SIOUX CITY     LGT RAIN  83  79  88 S20       29.87F HX  94
SPENCER        CLOUDY    83  75  77 SE6       29.88F HX  90
STORM LAKE *   CLOUDY    84  77  79 S20G36    29.85F HX  94
$$

IAZ055>058-069>071-079>083-090>094-200400-
   SOUTHWEST IOWA

CITY           SKY/WX    TMP DP  RH WIND       PRES   REMARKS
ATLANTIC *     CLOUDY    82  79  89 S8        29.95S HX  93
AUDUBON *      CLOUDY    81  75  83 CALM      30.00R HX  86
CLARINDA *     CLEAR     82  79  89 S7        29.98S HX  93
COUNCIL BLFS * CLOUDY    84  82  94 S10       29.93S HX 101
CRESTON *      CLOUDY    81  77  89 SE8       30.01R HX  88
HARLAN  *      CLOUDY    82  79  89 CALM      30.00R HX  93
LAMONI         MOCLDY    81  78  91 SE7       30.01R HX  89
RED OAK *      CLOUDY    82  79  89 S8        29.95S HX  93
SHENANDOAH *   CLOUDY    82  75  78 S9G16     29.95S HX  89
$$

IAZ047>049-059>061-072>074-084-200400-
   CENTRAL IOWA

CITY           SKY/WX    TMP DP  RH WIND       PRES   REMARKS
AMES           CLOUDY    81  76  84 S6        29.96R HX  87
ANKENY *       CLOUDY    82  75  78 S8        29.98R HX  89
BOONE *        CLOUDY    82  75  78 S8        29.95F HX  89
CHARITON *     CLOUDY    81  75  83 S8        30.00S HX  86
DES MOINES     CLOUDY    83  74  74 S9        29.97R HX  89
GRINNELL*      CLEAR     80  71  74 S8        30.01S HX  84
KNOXVILLE *    CLOUDY    82  73  74 S9        29.98S HX  88
MARSHALLTOWN   CLOUDY    83  73  72 S10       29.96F HX  89
NEWTON *       CLOUDY    79  72  78 S7        30.00R HX  82
PELLA *        PTCLDY    81  71  71 SE6       30.01S HX  85
PERRY *          N/A     80  78  92 SE5       29.97R HX  88
$$

IAZ004>006-015-016-023>025-035-036-200400-
   NORTH CENTRAL IOWA

CITY           SKY/WX    TMP DP  RH WIND       PRES   REMARKS
ALGONA *       CLOUDY    77  73  88 SE5       29.91R
CLARION *      CLOUDY    79  75  89 S8        29.93R HX  82
ESTHERVILLE    CLOUDY    73  70  90 S5        29.89S
FORT DODGE *   CLOUDY    84  73  70 S14       29.93R HX  91
MASON CITY     CLOUDY    73  69  87 S14       29.94S
FOREST CITY *    N/A     73  70  88 S10       29.92F
WEBSTER CITY * CLOUDY    82  75  78 S13G18    29.91F HX  89
IOWA FALLS *     N/A     75  72  89 SE9       29.97R
$$

IAZ007>011-017>019-026>030-037>042-050>054-066-200400-
   NORTHEAST IOWA

CITY           SKY/WX    TMP DP  RH WIND       PRES   REMARKS
CEDAR RAPIDS   PTCLDY    73  70  90 SE9       30.01R
CHARLES CITY * PTCLDY    72  72 100 S10       29.95S
CLINTON *      TSTM      72  70  93 S12       30.05F FOG
DECORAH *      CLOUDY    68  66  94 SE6       29.94F
DUBUQUE        CLOUDY    71  66  84 NE12      30.03R
MONTICELLO *   CLOUDY    72  70  94 SE6       30.00R
OELWEIN *      CLOUDY    72  72 100 S9        29.96F
WATERLOO       CLOUDY    74  65  73 SE13      29.95S
$$

IAZ064-065-067-068-078-200400-
   EAST CENTRAL IOWA

CITY           SKY/WX    TMP DP  RH WIND       PRES   REMARKS
DAVENPORT      MOCLDY    74  67  78 NE8       30.09R
IOWA CITY      PTCLDY    79  72  79 E7        30.04R HX  82
MUSCATINE *    CLOUDY    81  75  83 NE9       30.03R HX  86
QUAD CITIES    CLOUDY    78  67  68 NE10      30.07R HX  80
$$

IAZ062-063-075>077-085>089-095>099-200400-
   SOUTHEAST IOWA

CITY           SKY/WX    TMP DP  RH WIND       PRES   REMARKS
BURLINGTON     CLEAR     80  77  90 SE3       30.03R HX  87
FAIRFIELD *    MOCLDY    82  73  74 S6        30.02R HX  88
FORT MADISON * CLEAR     81  75  83 S3        30.05R HX  86
KEOKUK *       CLEAR     82  77  83 CALM      30.04R HX  91
OSKALOOSA *      N/A     79  72  79 S6        30.01R HX  81
WASHINGTON *   CLOUDY    79  75  89 S6        30.03R HX  82
$$

ABBREVIATIONS USED IN REMARKS
   TC - TEMPERATURES IN CELSIUS
  WCI - WIND CHILL INDEX
   HX - HEAT INDEX
  VSB - VISIBILITY
$$





USA.gov is the U.S. government's official web portal to all federal, state and local government web resources and services.